Location: Cointrin
(46.2167°N, 6.1167°E)
Time: 18:36:05
(UTC+00:00)

Cosmos 44 Rocket - Pass Details

Date: 08 February 2023
Orbit: 646 x 741 km, 65.1° (Epoch: 21 March)

Event Time Altitude Azimuth Distance (km) Brightness Sun altitude
Rises 18:07:21 0° 223° (SW) 2,957 7.4 -13.7°
Reaches altitude 10° 18:09:38 10° 226° (SW) 2,057 6.6 -14.1°
Maximum altitude 18:14:16 65° 309° (NW) 733 3.6 -14.9°
Enters shadow 18:18:56 11° 31° (NNE) 2,076 5.4 -15.7°
